[[{"header":{"parameterUnit":"m.s-1","parameterCategory":1,"la1":30.2991,"la2":30.254,"lo1":-89.0895,"lo2":-89.0444,"dy":0.0017,"dx":0.0017,"nx":28,"ny":28,"refTime":"2025-08-02T09:00:00:Z","depth":0,"parameterNumber":2,"parameterNumberName":"U-component_of_WINDS"},"data":[0,0,0,0,0,0,0,0,0,0,0,0,0,0,0,0,0,0,0,0,0,0,0,0,0,0,0,0,0,0,0,0,0,0,0,0,0,0,0,0,0,0,0,0,0,0,0,0,0,0,0,0,0,0,0,0,0,0,0.9068,0.9069,0,0.9191,0.9193,0.9194,0.9233,0.9232,0.9232,0.9231,0.9357,0.9361,0.9365,0,0,0,0,0,0,0,0,0,0,0,0,0,0.8864,0.8868,0.9067,0.9069,0.9071,0.9191,0.9193,0.9195,0.9233,0.9232,0.9231,0.9231,0.9356,0.936,0.9365,0,0,0,0,0,0,0,0,0,0,0,0,0,0.8967,0.8869,0.9067,0.9104,0.9109,0.9191,0.9193,0.9195,0.9233,0.9232,0.9231,0.923,0.9354,0.936,0.9366,0.9419,0,0,0.9383,0.9386,0,0,0,0,0,0,0,0,0.8961,0.8974,0.9097,0.9102,0.9107,0.9196,0.9167,0.927,0.9233,0.9186,0.9231,0.923,0.9304,0.9314,0.9339,0.9425,0.9431,0.9384,0.9388,0.939,0.9392,0,0,0,0,0,0,0,0.8954,0.8969,0.9116,0.9099,0.9105,0.9115,0.9128,0.9187,0.9248,0.919,0.9193,0.9207,0.9306,0.9333,0.9342,0.9433,0.9384,0.9389,0.9393,0.9395,0.957,0.9571,0,0,0,0,0,0,0.894,0.8963,0.9112,0.912,0.903,0.9119,0.9134,0.9168,0.9248,0.9259,0.9208,0.9208,0.9324,0.9335,0.9347,0.9415,0.939,0.9396,0.9399,0.9569,0.9571,0.9572,0,0,0,0,0,0,0.8936,0.8953,0.9107,0.9042,0.9063,0.9123,0.9161,0.9171,0.9198,0.9261,0.9272,0.9224,0.9323,0.9339,0.9401,0.942,0.9398,0.9403,0.9568,0.957,0.9571,0.9552,0,0,0,0,0,0,0.893,0.8951,0.8972,0.9043,0.9066,0.916,0.9162,0.9174,0.9208,0.921,0.9279,0.929,0.9324,0.9392,0.9407,0.9428,0.9408,0.9566,0.9569,0.9571,0.9551,0.9553,0.9555,0,0,0,0,0,0.8922,0.8962,0.8973,0.8991,0.9093,0.9161,0.9174,0.9213,0.9209,0.9231,0.9272,0.9288,0.9416,0.9398,0.9415,0.9438,0.9565,0.9568,0.9571,0.9551,0.9553,0.9555,0,0,0,0,0,0,0.8891,0.8971,0.8985,0.9048,0.9097,0.9167,0.9195,0.9213,0.9264,0.9264,0.931,0.9325,0.9384,0.9418,0.9397,0.9495,0.9491,0.9497,0.9471,0.9473,0.9475,0.9465,0.9413,0,0,0,0,0,0.8892,0.894,0.9007,0.9057,0.9081,0.9134,0.9164,0.919,0.9243,0.9264,0.9309,0.9359,0.9411,0.9444,0.9495,0.9557,0.9573,0.9581,0.9583,0.9584,0.9588,0.9624,0.9628,0.958,0.958,0.958,0,0,0.8893,0.8943,0.897,0.9052,0.9093,0.9141,0.9151,0.9202,0.9238,0.9271,0.9333,0.9369,0.9428,0.949,0.952,0.952,0.9605,0.9587,0.9587,0.9591,0.9627,0.9631,0.9635,0.9582,0.9582,0.9581,0,0,0.892,0.8963,0.9009,0.905,0.9113,0.9148,0.9159,0.9227,0.9252,0.9315,0.9341,0.9385,0.9473,0.9515,0.9547,0.9592,0.9609,0.9608,0.9615,0.9649,0.9653,0.9657,0.9672,0.9677,0.9612,0.9612,0.9612,0,0.8913,0.8988,0.903,0.908,0.9115,0.9148,0.9195,0.9233,0.9309,0.9333,0.9332,0.9444,0.9486,0.9559,0.957,0.9595,0.9609,0.9599,0.9649,0.9653,0.9657,0.9673,0.9678,0.9611,0.9612,0.9612,0.9612,0,0.8977,0.9028,0.9058,0.9131,0.917,0.9218,0.9267,0.9302,0.9324,0.936,0.9424,0.9477,0.9539,0.9559,0.9581,0.9635,0.9633,0.964,0.9637,0.966,0.9676,0.9682,0.9611,0.9611,0.9611,0.9611,0,0,0.8986,0.9083,0.9093,0.9127,0.9199,0.924,0.929,0.9352,0.938,0.9432,0.9475,0.955,0.9557,0.9594,0.9622,0.9652,0.9684,0.9656,0.9658,0.9659,0.9747,0.974,0.9746,0.9696,0.9698,0.9699,0.9742,0,0.9021,0.9112,0.9152,0.9225,0.9273,0.9307,0.935,0.94,0.9435,0.9481,0.952,0.9572,0.9578,0.96,0.9632,0.9673,0.9702,0.9671,0.9736,0.9738,0.9719,0.9754,0.9747,0.9785,0.9748,0.9749,0.975,0,0.9075,0.9127,0.9205,0.9273,0.9295,0.9333,0.9393,0.9437,0.9494,0.9518,0.956,0.9587,0.9641,0.9636,0.9711,0.9689,0.9718,0.9743,0.9746,0.9752,0.9744,0.9761,0.9798,0.9804,0.976,0.9759,0.9758,0,0.9073,0.9163,0.9222,0.925,0.933,0.9357,0.9391,0.9448,0.9482,0.9535,0.9559,0.9617,0.9649,0.9694,0.9736,0.9728,0.9807,0.9805,0.9828,0.9827,0.9842,0.984,0.9883,0.9862,0.9862,0.9862,0.9862,0,0.9108,0.9154,0.9222,0.9257,0.931,0.9356,0.9408,0.9445,0.9495,0.9538,0.9571,0.9611,0.9665,0.9712,0.9746,0.9803,0.9817,0.9838,0.9846,0.9834,0.9831,0.9853,0.9851,0.9864,0.9863,0.9863,0.9863,0,0.9113,0.9161,0.9227,0.9298,0.9317,0.9353,0.9414,0.945,0.9488,0.9543,0.9558,0.9617,0.9674,0.9721,0.9796,0.9819,0.9879,0.9888,0.9859,0.9863,0.9883,0.988,0.9941,0.9951,0.9924,0.9924,0.9924,0,0.9132,0.9168,0.9244,0.9276,0.9311,0.9361,0.9398,0.9445,0.9481,0.955,0.9578,0.9638,0.9688,0.9778,0.9827,0.9885,0.9896,0.9914,0.9905,0.9892,0.9896,0.9893,0.9896,0.9914,0.9914,0.9914,0.9914,0,0.916,0.9182,0.9233,0.9293,0.9335,0.9385,0.9435,0.9459,0.9515,0.9555,0.9614,0.9653,0.973,0.9789,0.9853,0.9889,0.9911,0.9917,0.9925,0.9912,0.9894,0.9904,0.986,0.9914,0.9914,0.9914,0.9914,0.9914,0.9172,0.9206,0.9265,0.9321,0.9364,0.9411,0.9448,0.9491,0.9542,0.9608,0.9634,0.9694,0.9752,0.9839,0.9876,0.9924,0.9926,0.9938,0.9941,0.9943,0.9941,0.9887,0.9936,0.9936,0.9936,0.9936,0.9936,0,0.9201,0.9241,0.9293,0.9362,0.9406,0.9425,0.9481,0.9517,0.957,0.9622,0.9671,0.974,0.9798,0.9852,0.9913,0.9941,0.9953,0.9955,0.9953,0.9961,0.9936,0.9922,0.9945,0.9945,0.9945,0.9945,0.9945,0.9945,0.9221,0.928,0.931,0.939,0.943,0.949,0.9521,0.9564,0.9606,0.9681,0.973,0.9765,0.9818,0.9883,0.9937,0.9952,0.9973,0.9972,0.9989,0.9964,0.9963,0.9961,0.9949,0.9977,0.9977,1.0011,1.0011,1.0011]},{"header":{"parameterUnit":"m.s-1","parameterCategory":1,"la1":30.2991,"la2":30.254,"lo1":-89.0895,"lo2":-89.0444,"dy":0.0017,"dx":0.0017,"nx":28,"ny":28,"refTime":"2025-08-02T09:00:00:Z","depth":0,"parameterNumber":3,"parameterNumberName":"V-component_of_WINDS"},"data":[0,0,0,0,0,0,0,0,0,0,0,0,0,0,0,0,0,0,0,0,0,0,0,0,0,0,0,0,0,0,0,0,0,0,0,0,0,0,0,0,0,0,0,0,0,0,0,0,0,0,0,0,0,0,0,0,0,0,0.6086,0.6086,0,0.6168,0.6169,0.617,0.6169,0.6168,0.6167,0.6166,0.6253,0.6256,0.6259,0,0,0,0,0,0,0,0,0,0,0,0,0,0.5927,0.593,0.6085,0.6087,0.6088,0.6168,0.6169,0.617,0.617,0.6168,0.6167,0.6166,0.6251,0.6255,0.6259,0,0,0,0,0,0,0,0,0,0,0,0,0,0.6001,0.593,0.6085,0.6097,0.6099,0.6168,0.6169,0.6171,0.617,0.6168,0.6167,0.6165,0.625,0.6255,0.626,0.6323,0,0,0.6275,0.6277,0,0,0,0,0,0,0,0,0.5997,0.6007,0.6094,0.6096,0.6098,0.6157,0.6145,0.6222,0.617,0.6143,0.6166,0.6164,0.6222,0.6229,0.6248,0.6327,0.6331,0.6275,0.6278,0.6281,0.6282,0,0,0,0,0,0,0,0.5992,0.6003,0.6118,0.6095,0.6098,0.6098,0.6107,0.6159,0.6191,0.6145,0.6145,0.6155,0.6223,0.6244,0.625,0.6332,0.6275,0.628,0.6283,0.6285,0.6464,0.6466,0,0,0,0,0,0,0.5984,0.5999,0.6116,0.6121,0.6043,0.6102,0.6112,0.614,0.619,0.6196,0.6156,0.6155,0.6236,0.6245,0.6253,0.6329,0.6281,0.6285,0.6288,0.6463,0.6465,0.6467,0,0,0,0,0,0,0.5981,0.5995,0.6112,0.606,0.6075,0.6106,0.6138,0.6142,0.6163,0.6199,0.6204,0.6172,0.6235,0.6246,0.6305,0.6332,0.6287,0.6292,0.646,0.6463,0.6466,0.6483,0,0,0,0,0,0,0.5976,0.5993,0.6018,0.606,0.6078,0.6163,0.614,0.6145,0.6171,0.617,0.6215,0.622,0.6235,0.6298,0.631,0.6338,0.6296,0.6458,0.6462,0.6465,0.648,0.6486,0.649,0,0,0,0,0,0.597,0.6021,0.6019,0.6034,0.6109,0.6165,0.6174,0.6189,0.6174,0.6198,0.6221,0.6219,0.6327,0.6304,0.6318,0.6348,0.6457,0.6461,0.6465,0.6477,0.6484,0.649,0,0,0,0,0,0,0.5982,0.6027,0.6026,0.6091,0.6124,0.6164,0.6197,0.6197,0.6235,0.6233,0.625,0.626,0.6318,0.6339,0.6312,0.641,0.639,0.6397,0.6395,0.6402,0.6407,0.6401,0.63,0,0,0,0,0,0.5992,0.6033,0.607,0.6124,0.614,0.6165,0.619,0.6198,0.6233,0.6247,0.6274,0.6308,0.635,0.6377,0.6417,0.6482,0.6491,0.651,0.6515,0.6519,0.6525,0.6559,0.6567,0.648,0.648,0.648,0,0,0.6014,0.6043,0.6068,0.6127,0.6153,0.6195,0.6177,0.6223,0.6253,0.6255,0.6311,0.6331,0.6371,0.6432,0.6461,0.6451,0.6551,0.6524,0.6527,0.6531,0.6564,0.6572,0.6579,0.6483,0.6482,0.6482,0,0,0.6074,0.6101,0.6148,0.6174,0.6213,0.6229,0.624,0.628,0.6293,0.635,0.6351,0.6387,0.6459,0.6486,0.6509,0.6575,0.6575,0.6588,0.6616,0.6649,0.6656,0.6662,0.6684,0.6692,0.6594,0.6594,0.6594,0,0.6096,0.6159,0.6172,0.6217,0.6242,0.6243,0.629,0.6314,0.6365,0.6382,0.6371,0.6459,0.6485,0.6552,0.6568,0.6587,0.6599,0.6584,0.6654,0.666,0.6666,0.6687,0.6696,0.6595,0.6595,0.6595,0.6595,0,0.6183,0.6226,0.6259,0.6307,0.6335,0.6381,0.64,0.6428,0.6432,0.6449,0.6505,0.6537,0.6582,0.6598,0.6605,0.6665,0.6658,0.665,0.663,0.6675,0.6696,0.6704,0.6597,0.6597,0.6596,0.6596,0,0,0.6256,0.6307,0.6319,0.6339,0.6381,0.6415,0.6459,0.6503,0.6525,0.6559,0.6597,0.6655,0.6647,0.6673,0.6682,0.671,0.6759,0.6698,0.6699,0.6708,0.6825,0.6831,0.6841,0.6758,0.6759,0.6761,0.6822,0,0.632,0.6399,0.641,0.648,0.6519,0.6519,0.6557,0.6587,0.6603,0.6638,0.6656,0.6696,0.6683,0.6698,0.6727,0.6747,0.6782,0.6743,0.6792,0.6794,0.6782,0.6852,0.6859,0.6915,0.683,0.6831,0.6832,0,0.6406,0.644,0.6513,0.6547,0.6564,0.6599,0.6638,0.6671,0.6704,0.6713,0.6741,0.6745,0.679,0.6767,0.6829,0.6801,0.6822,0.6834,0.6837,0.6842,0.6816,0.6858,0.6933,0.6941,0.6845,0.6844,0.6843,0,0.645,0.6515,0.6566,0.6584,0.6625,0.6649,0.6667,0.6698,0.6722,0.6756,0.6772,0.6811,0.6832,0.6862,0.6876,0.6858,0.6936,0.6915,0.6945,0.6944,0.6962,0.6961,0.7041,0.6975,0.6975,0.6975,0.6975,0,0.652,0.6565,0.6586,0.6618,0.6667,0.6679,0.6727,0.6745,0.6771,0.6806,0.6808,0.684,0.6857,0.6891,0.6903,0.6951,0.6961,0.6969,0.6971,0.6969,0.6968,0.6983,0.6979,0.6977,0.6977,0.6976,0.6976,0,0.6579,0.6595,0.665,0.6684,0.6693,0.6728,0.6756,0.6786,0.68,0.6844,0.6855,0.6878,0.6918,0.6934,0.6984,0.6991,0.7047,0.7046,0.7035,0.7036,0.7065,0.7061,0.7157,0.717,0.7097,0.7097,0.7098,0,0.6623,0.6656,0.6692,0.6715,0.6733,0.677,0.6794,0.6807,0.6831,0.6869,0.6894,0.6934,0.6967,0.7031,0.7052,0.7089,0.7089,0.712,0.7095,0.709,0.7089,0.7086,0.7089,0.7125,0.7126,0.7126,0.7127,0,0.6698,0.6704,0.6738,0.6774,0.6802,0.6832,0.6861,0.6879,0.6896,0.6923,0.6964,0.6989,0.7038,0.7077,0.7115,0.7133,0.7133,0.7134,0.7143,0.7141,0.7133,0.7136,0.7048,0.7132,0.7132,0.7131,0.7131,0.7131,0.675,0.6779,0.6808,0.6846,0.6868,0.6894,0.6923,0.694,0.6974,0.7014,0.7019,0.7062,0.7091,0.7142,0.7161,0.7194,0.7186,0.7199,0.7203,0.7206,0.7207,0.7127,0.7201,0.7201,0.7201,0.7201,0.7201,0,0.6826,0.6843,0.6877,0.6916,0.6945,0.694,0.6971,0.6996,0.7033,0.706,0.7091,0.7136,0.7173,0.7195,0.7232,0.7254,0.7255,0.7264,0.7262,0.7266,0.7213,0.7201,0.7262,0.7262,0.7262,0.7262,0.7262,0.7262,0.6868,0.6916,0.6925,0.6983,0.7001,0.7042,0.7059,0.7083,0.7104,0.7154,0.7184,0.7198,0.7223,0.7261,0.7294,0.7299,0.7313,0.7322,0.7327,0.7277,0.727,0.7264,0.7253,0.7325,0.7325,0.7377,0.7378,0.7378]}]]